TimeCST,TemperatureF,Dew PointF,Humidity,Sea Level PressureIn,VisibilityMPH,Wind Direction,Wind SpeedMPH,Gust SpeedMPH,PrecipitationIn,Events,Conditions,WindDirDegrees,DateUTC
12:06 AM,32.0,32.0,100,29.57,1.2,NNW,6.9,-,0.00,,Overcast,330,2013-01-29 06:06:00
12:13 AM,32.0,32.0,100,29.61,1.2,WNW,5.8,-,0.00,,Overcast,290,2013-01-29 06:13:00
12:56 AM,32.0,32.0,100,29.65,1.8,NW,4.6,-,0.00,,Light Drizzle,310,2013-01-29 06:56:00
1:11 AM,32.0,32.0,100,29.60,2.0,NW,5.8,-,0.00,,Light Drizzle,310,2013-01-29 07:11:00
1:51 AM,32.0,30.2,93,29.60,3.0,NNW,11.5,-,0.00,,Overcast,330,2013-01-29 07:51:00
1:56 AM,32.0,30.9,96,29.65,4.0,NNW,10.4,-,0.00,,Overcast,340,2013-01-29 07:56:00
2:19 AM,32.0,30.2,93,29.61,8.0,North,11.5,-,N/A,,Overcast,350,2013-01-29 08:19:00
2:56 AM,32.0,30.9,96,29.66,10.0,NNW,8.1,-,N/A,,Overcast,330,2013-01-29 08:56:00
3:45 AM,32.0,30.2,93,29.62,8.0,North,10.4,-,N/A,,Overcast,350,2013-01-29 09:45:00
3:56 AM,32.0,28.9,88,29.64,7.0,North,10.4,-,N/A,,Overcast,10,2013-01-29 09:56:00
4:56 AM,30.9,28.0,89,29.66,10.0,NNW,10.4,-,N/A,,Overcast,330,2013-01-29 10:56:00
5:56 AM,28.9,27.0,92,29.68,7.0,NW,13.8,-,N/A,,Overcast,320,2013-01-29 11:56:00
6:38 AM,28.4,24.8,86,29.64,10.0,NNW,16.1,-,N/A,,Overcast,340,2013-01-29 12:38:00
6:45 AM,28.4,26.6,93,29.64,10.0,NNW,15.0,-,N/A,,Overcast,340,2013-01-29 12:45:00
6:56 AM,28.9,26.1,89,29.70,10.0,North,10.4,-,N/A,,Mostly Cloudy,350,2013-01-29 12:56:00
7:29 AM,30.2,26.6,86,29.65,10.0,North,11.5,-,N/A,,Mostly Cloudy,350,2013-01-29 13:29:00
7:56 AM,28.9,26.1,89,29.69,10.0,NNW,13.8,-,N/A,,Mostly Cloudy,340,2013-01-29 13:56:00
8:25 AM,28.4,26.6,93,29.68,10.0,NNW,9.2,-,N/A,,Overcast,330,2013-01-29 14:25:00
8:56 AM,30.0,27.0,88,29.74,10.0,NNW,10.4,-,N/A,,Overcast,330,2013-01-29 14:56:00
9:56 AM,30.0,28.0,92,29.75,9.0,North,10.4,-,N/A,,Overcast,350,2013-01-29 15:56:00
10:17 AM,30.2,28.4,93,29.69,10.0,North,6.9,-,N/A,,Mostly Cloudy,350,2013-01-29 16:17:00
10:56 AM,33.1,28.9,85,29.75,10.0,North,8.1,-,N/A,,Scattered Clouds,350,2013-01-29 16:56:00
11:32 AM,33.8,30.2,87,29.70,10.0,North,9.2,-,N/A,,Mostly Cloudy,10,2013-01-29 17:32:00
11:56 AM,35.1,30.0,82,29.73,10.0,North,10.4,-,N/A,,Mostly Cloudy,350,2013-01-29 17:56:00
12:07 PM,35.6,30.2,81,29.68,10.0,NNW,10.4,-,N/A,,Mostly Cloudy,340,2013-01-29 18:07:00
12:56 PM,35.1,27.0,72,29.72,10.0,North,12.7,-,N/A,,Partly Cloudy,360,2013-01-29 18:56:00
1:56 PM,35.1,27.0,72,29.73,10.0,North,11.5,-,N/A,,Mostly Cloudy,350,2013-01-29 19:56:00
2:56 PM,35.1,26.1,70,29.71,10.0,North,13.8,-,N/A,,Clear,360,2013-01-29 20:56:00
3:56 PM,34.0,26.1,73,29.73,10.0,North,9.2,-,N/A,,Mostly Cloudy,360,2013-01-29 21:56:00
4:56 PM,32.0,25.0,75,29.74,10.0,North,12.7,-,N/A,,Clear,360,2013-01-29 22:56:00
5:56 PM,30.0,25.0,82,29.76,10.0,North,9.2,-,N/A,,Scattered Clouds,10,2013-01-29 23:56:00
6:56 PM,28.0,23.0,81,29.79,10.0,North,16.1,-,N/A,,Overcast,360,2013-01-30 00:56:00
7:27 PM,26.6,23.0,86,29.77,10.0,North,12.7,-,N/A,,Overcast,350,2013-01-30 01:27:00
7:56 PM,23.0,19.0,85,29.83,10.0,North,15.0,-,N/A,,Overcast,360,2013-01-30 01:56:00
8:11 PM,23.0,19.4,86,29.77,10.0,North,17.3,-,N/A,,Mostly Cloudy,360,2013-01-30 02:11:00
8:27 PM,21.2,17.6,86,29.77,10.0,North,15.0,21.9,N/A,,Mostly Cloudy,360,2013-01-30 02:27:00
8:56 PM,23.0,19.0,85,29.84,10.0,North,16.1,21.9,N/A,,Overcast,360,2013-01-30 02:56:00
9:56 PM,23.0,19.0,85,29.86,10.0,North,17.3,26.5,N/A,,Overcast,360,2013-01-30 03:56:00
10:56 PM,23.0,18.0,81,29.83,10.0,North,16.1,33.4,N/A,,Overcast,360,2013-01-30 04:56:00
11:56 PM,21.9,18.0,85,29.85,10.0,North,18.4,29.9,N/A,,Overcast,10,2013-01-30 05:56:00